Home   Weather   City of Ilwaco   Past weeks
Flag for USA

Past Weather in City of Ilwaco, Washington, USA — Yesterday and Last 2 Weeks

Now
53 °F

Light rain. Mostly cloudy.


Feels Like: 50 °F
Forecast: 54 / 46 °F
Wind: 10 mph from South

Location: Olympia Airport

Current Time: Oct 18, 2019 at 5:30:14 pm

Latest Report: Oct 18, 2019 at 4:54 pm


Visibility: 9 mi

Pressure: 29.87 "Hg

Humidity: 86%

Dew Point: 49 °F

Location of City of IlwacoLocation

Past Weather in City of Ilwaco — Graph

°F

City of Ilwaco Temperature Yesterday

Maximum temperature yesterday: 55 °F (at 11:54 am)
Minimum temperature yesterday: 48 °F (at 10:54 pm)
Average temperature yesterday: 51 °F

High & Low Weather Summary for the Past Weeks

 TemperatureHumidityPressure
High63 °F (Oct 6, 3:54 pm)100% (Oct 4, 11:17 pm)30.47 "Hg (Oct 4, 11:17 pm)
Low27 °F (Oct 9, 6:14 am)31% (Oct 11, 4:54 pm)29.65 "Hg (Oct 16, 5:54 pm)
Average48 °F83%30.08 "Hg
* Reported Oct 3 3:54 pm — Oct 18 3:54 pm, City of Ilwaco. Weather by CustomWeather, © 2019

Note: Actual official high and low records may vary slightly from our data, if they occured in-between our weather recording intervals... More about our weather records

Advertising

City of Ilwaco Weather History for the Previous 24 Hours

Scroll right to see more
 ConditionsComfort  
Time TempWeatherWind HumidityBarometerVisibility
3:54 pm
Fri, Oct 18
53 °FBroken clouds.12 mph89%29.88 "Hg9 mi
3:32 pm53 °FBroken clouds.9 mph89%29.88 "Hg10 mi
2:54 pm52 °FCloudy.7 mph89%29.89 "Hg10 mi
1:54 pm50 °FLight rain. Fog.5 mph93%29.91 "Hg6 mi
12:54 pm50 °FLight rain. Cloudy.9 mph93%29.92 "Hg8 mi
12:25 pm49 °FLight rain. Fog.9 mph93%29.93 "Hg2 mi
11:54 am49 °FLight rain. Fog.6 mph93%29.93 "Hg3 mi
11:07 am48 °FRain. Fog.6 mph93%29.94 "Hg3 mi
10:57 am48 °FRain. Fog.5 mph93%29.94 "Hg3 mi
10:28 am48 °FLight rain. Fog.3 mph89%29.93 "Hg2 mi
10:13 am48 °FLight rain. Fog.5 mph89%29.93 "Hg2 mi
9:54 am48 °FLight rain. Fog.9 mph89%29.93 "Hg6 mi
8:54 am47 °FLight rain. Fog.7 mph93%29.93 "Hg5 mi
8:34 am47 °FLight rain. Fog.8 mph93%29.93 "Hg3 mi
8:09 am47 °FLight rain. Fog.9 mph93%29.92 "Hg3 mi
6:54 am45 °FMostly cloudy.3 mph93%29.91 "Hg10 mi
5:54 am46 °FMostly cloudy.5 mph93%29.91 "Hg10 mi
4:54 am46 °FMostly cloudy.7 mph89%29.91 "Hg10 mi
3:54 am47 °FMostly cloudy.7 mph86%29.90 "Hg10 mi
2:54 am46 °FClear.8 mph89%29.88 "Hg10 mi
1:54 am48 °FMostly cloudy.10 mph86%29.85 "Hg10 mi
12:54 am49 °FMostly cloudy.12 mph86%29.83 "Hg10 mi
11:54 pm
Thu, Oct 17
49 °FLight rain. Passing clouds.13 mph90%29.79 "Hg10 mi
10:54 pm48 °FPartly cloudy.9 mph96%29.79 "Hg8 mi
9:54 pm49 °FPassing clouds.7 mph93%29.76 "Hg10 mi
8:54 pm50 °FPassing clouds.6 mph93%29.74 "Hg10 mi
7:54 pm51 °FPassing clouds.8 mph89%29.72 "Hg10 mi
7:13 pm51 °FLight rain. Mostly cloudy.8 mph89%29.70 "Hg10 mi
7:06 pm51 °FLight rain. Mostly cloudy.10 mph89%29.70 "Hg8 mi
5:54 pm53 °FRain. Fog.15 mph89%29.67 "Hg4 mi
Weather by CustomWeather, © 2019

See weather overview